Weather History for Elizabethton, TN

Change the Weather History Date:

Wednesday, June 18, 2014

  Actual Average (KTRI) Record (KTRI)
Temperature  
Mean Temperature 76 °F 72 °F  
Max Temperature 91 °F 84 °F 99 °F (1944)
Min Temperature 60 °F 61 °F 46 °F (1974)
Degree Days  
Heating Degree Days 0 0  
Month to date heating degree days 9  
Since 1 June heating degree days 9  
Since 1 July heating degree days 4372  
Cooling Degree Days 10 7  
Month to date cooling degree days 104  
Year to date cooling degree days 177  
Since 1 June cooling degree days 104  
Growing Degree Days 26 (Base 50)    
Moisture  
Dew Point 62 °F    
Average Humidity 67    
Maximum Humidity 94    
Minimum Humidity 36    
Precipitation  
Precipitation 0.00 in 0.14 in 2.90 in (2013)
Month to date precipitation 2.28  
Year to date precipitation 19.67  
Snow  
Snow 0.00 in 0.00 in - ()
Month to date snowfall 0.0  
Since 1 June snowfall 0.0  
Since 1 July snowfall 13.3  
Snow Depth -    
Sea Level Pressure  
Sea Level Pressure 30.18 in    
Wind  
Wind Speed 2 mph (WSW)    
Max Wind Speed 10 mph    
Max Gust Speed -    
Visibility 10 miles    
Events      
T = Trace of Precipitation, MM = Missing Value Source: NWS Daily Summary

Daily Weather History Graph

Daily Weather History Graph

Search for Another Location

Airport:

Trip Planner

Search our weather history database for the weather conditions in past years. The results will help you decide how hot, cold, wet, or windy it might be!

Date:

Astronomy

Jun. 18, 2014 Rise Set
Actual Time 6:10 AM EDT 8:49 PM EDT
Civil Twilight 5:40 AM EDT 9:19 PM EDT
Nautical Twilight 5:02 AM EDT 9:57 PM EDT
Astronomical Twilight 4:19 AM EDT 10:39 PM EDT
Moon 12:25 AM EDT (6/18) 12:22 PM EDT (6/18)
Length of Visible Light 15h 39m
Length of Day
14h 38m
Waning Gibbous, 63% of the Moon is Illuminated
Jun 18
Waning Gibbous
Jun 19
Last Quarter
Jun 27
New
Jul 5
First Quarter
Jul 12
Full

Hourly Weather History & Observations

Time (EDT) Temp. Heat Index Dew Point Humidity Pressure Visibility Wind Dir Wind Speed Gust Speed Precip Events Conditions
12:15 AM 62.6 °F - 60.8 °F 94% 30.19 in 10.0 mi Calm Calm - N/A   Clear
12:35 AM 66.2 °F - 60.8 °F 83% 30.19 in 10.0 mi Calm Calm - N/A   Clear
12:55 AM 62.6 °F - 59.0 °F 88% 30.19 in 10.0 mi Calm Calm - N/A   Clear
1:15 AM 62.6 °F - 59.0 °F 88% 30.19 in 10.0 mi Calm Calm - N/A   Clear
1:35 AM 64.4 °F - 59.0 °F 83% 30.19 in 10.0 mi Calm Calm - N/A   Clear
1:55 AM 64.4 °F - 59.0 °F 83% 30.19 in 10.0 mi Calm Calm - N/A   Clear
2:15 AM 64.4 °F - 59.0 °F 83% 30.19 in 10.0 mi Calm Calm - N/A   Clear
2:35 AM 64.4 °F - 59.0 °F 83% 30.19 in 10.0 mi Calm Calm - N/A   Clear
2:55 AM 62.6 °F - 57.2 °F 82% 30.19 in 10.0 mi Calm Calm - N/A   Clear
3:15 AM 64.4 °F - 57.2 °F 77% 30.19 in 10.0 mi ENE 3.5 mph - N/A   Clear
3:35 AM 62.6 °F - 59.0 °F 88% 30.18 in 10.0 mi Calm Calm - N/A   Clear
3:55 AM 62.6 °F - 57.2 °F 82% 30.19 in 10.0 mi Calm Calm - N/A   Clear
4:15 AM 62.6 °F - 57.2 °F 82% 30.19 in 10.0 mi Calm Calm - N/A   Clear
4:35 AM 62.6 °F - 59.0 °F 88% 30.18 in 10.0 mi Calm Calm - N/A   Clear
4:55 AM 60.8 °F - 57.2 °F 88% 30.19 in 10.0 mi NE 3.5 mph - N/A   Clear
5:15 AM 62.6 °F - 59.0 °F 88% 30.19 in 10.0 mi Calm Calm - N/A   Clear
5:35 AM 62.6 °F - 57.2 °F 82% 30.19 in 10.0 mi Calm Calm - N/A   Clear
5:55 AM 60.8 °F - 57.2 °F 88% 30.19 in 10.0 mi Calm Calm - N/A   Clear
6:15 AM 60.8 °F - 57.2 °F 88% 30.20 in 10.0 mi Calm Calm - N/A   Partly Cloudy
6:35 AM 60.8 °F - 59.0 °F 94% 30.20 in 10.0 mi Calm Calm - N/A   Scattered Clouds
6:55 AM 62.6 °F - 59.0 °F 88% 30.21 in 10.0 mi East 3.5 mph - N/A   Scattered Clouds
7:15 AM 64.4 °F - 60.8 °F 88% 30.21 in 10.0 mi Calm Calm - N/A   Partly Cloudy
7:35 AM 66.2 °F - 60.8 °F 83% 30.21 in 10.0 mi Calm Calm - N/A   Partly Cloudy
7:55 AM 68.0 °F - 62.6 °F 83% 30.21 in 10.0 mi East 4.6 mph - N/A   Clear
8:15 AM 69.8 °F - 62.6 °F 78% 30.20 in 10.0 mi ENE 3.5 mph - N/A   Clear
8:35 AM 71.6 °F - 62.6 °F 73% 30.21 in 10.0 mi ENE 4.6 mph - N/A   Clear
8:55 AM 73.4 °F - 62.6 °F 69% 30.21 in 10.0 mi East 4.6 mph - N/A   Clear
9:15 AM 75.2 °F - 64.4 °F 69% 30.22 in 10.0 mi Variable 3.5 mph - N/A   Clear
9:35 AM 77.0 °F - 64.4 °F 65% 30.22 in 10.0 mi East 3.5 mph - N/A   Clear
9:55 AM 78.8 °F - 64.4 °F 61% 30.22 in 10.0 mi Calm Calm - N/A   Clear
10:15 AM 80.6 °F 82.7 °F 66.2 °F 61% 30.22 in 8.0 mi South 3.5 mph - N/A   Clear
10:35 AM 82.4 °F 84.6 °F 66.2 °F 58% 30.22 in 10.0 mi SW 6.9 mph - N/A   Clear
10:55 AM 84.2 °F 86.6 °F 66.2 °F 55% 30.21 in 10.0 mi SW 6.9 mph - N/A   Clear
11:15 AM 84.2 °F 86.6 °F 66.2 °F 55% 30.21 in 10.0 mi WSW 5.8 mph - N/A   Clear
11:35 AM 84.2 °F 86.6 °F 66.2 °F 55% 30.21 in 10.0 mi NW 8.1 mph - N/A   Partly Cloudy
11:55 AM 86.0 °F 88.2 °F 66.2 °F 51% 30.21 in 10.0 mi SW 3.5 mph - N/A   Partly Cloudy
12:15 PM 84.2 °F 86.6 °F 66.2 °F 55% 30.21 in 10.0 mi WNW 5.8 mph - N/A   Scattered Clouds
12:35 PM 86.0 °F 87.3 °F 64.4 °F 48% 30.20 in 10.0 mi Variable 6.9 mph - N/A   Partly Cloudy
12:55 PM 84.2 °F 85.6 °F 64.4 °F 51% 30.19 in 10.0 mi Variable 5.8 mph - N/A   Partly Cloudy
1:15 PM 86.0 °F 88.2 °F 66.2 °F 51% 30.18 in 10.0 mi Variable 5.8 mph - N/A   Scattered Clouds
1:35 PM 87.8 °F 89.4 °F 64.4 °F 46% 30.17 in 10.0 mi Variable 5.8 mph - N/A   Partly Cloudy
1:55 PM 87.8 °F 88.5 °F 62.6 °F 43% 30.17 in 10.0 mi SW 8.1 mph - N/A   Clear
2:15 PM 89.6 °F 91.1 °F 64.4 °F 43% 30.16 in 10.0 mi Calm Calm - N/A   Partly Cloudy
2:35 PM 87.8 °F 88.5 °F 62.6 °F 43% 30.16 in 10.0 mi SW 5.8 mph - N/A   Partly Cloudy
2:55 PM 91.4 °F 92.1 °F 62.6 °F 38% 30.15 in 10.0 mi West 6.9 mph - N/A   Clear
3:15 PM 91.4 °F 92.1 °F 62.6 °F 38% 30.14 in 10.0 mi West 8.1 mph - N/A   Partly Cloudy
3:35 PM 89.6 °F 89.5 °F 60.8 °F 38% 30.14 in 10.0 mi Variable 4.6 mph - N/A   Partly Cloudy
3:55 PM 91.4 °F 91.4 °F 60.8 °F 36% 30.14 in 10.0 mi WNW 6.9 mph - N/A   Partly Cloudy
4:15 PM 91.4 °F 91.4 °F 60.8 °F 36% 30.13 in 10.0 mi West 6.9 mph - N/A   Clear
4:35 PM 91.4 °F 92.1 °F 62.6 °F 38% 30.12 in 10.0 mi WSW 6.9 mph - N/A   Clear
4:55 PM 91.4 °F 92.1 °F 62.6 °F 38% 30.13 in 10.0 mi West 8.1 mph - N/A   Clear
5:15 PM 87.8 °F 88.5 °F 62.6 °F 43% 30.13 in 10.0 mi WSW 6.9 mph - N/A   Partly Cloudy
5:55 PM 87.8 °F 88.5 °F 62.6 °F 43% 30.14 in 10.0 mi WSW 10.4 mph - N/A   Clear
6:15 PM 87.8 °F 88.5 °F 62.6 °F 43% 30.14 in 10.0 mi SW 6.9 mph - N/A   Clear
6:35 PM 87.8 °F 89.4 °F 64.4 °F 46% 30.13 in 10.0 mi SSW 5.8 mph - N/A   Clear
6:55 PM 84.2 °F 85.6 °F 64.4 °F 51% 30.12 in 10.0 mi South 6.9 mph - N/A   Clear
7:15 PM 82.4 °F 83.9 °F 64.4 °F 54% 30.12 in 10.0 mi Variable 5.8 mph - N/A   Clear
7:35 PM 82.4 °F 83.9 °F 64.4 °F 54% 30.12 in 10.0 mi Calm Calm - N/A   Clear
7:55 PM 82.4 °F 84.6 °F 66.2 °F 58% 30.13 in 10.0 mi West 6.9 mph - N/A   Clear
8:15 PM 80.6 °F 82.7 °F 66.2 °F 61% 30.14 in 10.0 mi Variable 3.5 mph - N/A   Clear
8:35 PM 78.8 °F - 66.2 °F 65% 30.15 in 10.0 mi West 3.5 mph - N/A   Clear
8:55 PM 78.8 °F - 64.4 °F 61% 30.15 in 10.0 mi WNW 3.5 mph - N/A   Scattered Clouds
9:15 PM 75.2 °F - 66.2 °F 73% 30.16 in 10.0 mi North 3.5 mph - N/A   Partly Cloudy
9:35 PM 73.4 °F - 64.4 °F 73% 30.16 in 10.0 mi Calm Calm - N/A   Clear
9:55 PM 71.6 °F - 64.4 °F 78% 30.17 in 10.0 mi Calm Calm - N/A   Clear
10:15 PM 71.6 °F - 64.4 °F 78% 30.17 in 10.0 mi Calm Calm - N/A   Clear
10:35 PM 69.8 °F - 64.4 °F 83% 30.18 in 10.0 mi Calm Calm - N/A   Clear
10:55 PM 69.8 °F - 64.4 °F 83% 30.18 in 10.0 mi Calm Calm - N/A   Clear
11:15 PM 68.0 °F - 64.4 °F 88% 30.19 in 10.0 mi ENE 3.5 mph - N/A   Clear
11:35 PM 69.8 °F - 64.4 °F 83% 30.18 in 10.0 mi Calm Calm - N/A   Clear
11:55 PM 68.0 °F - 64.4 °F 88% 30.18 in 10.0 mi Calm Calm - N/A   Clear